www.pogodaiklimat.ru

Погода и климат >> Архив погоды >> Катар >> Dukhan


ПОГОДА в Dukhan

  • Прогноз погоды в Dukhan
  • Монитор погоды в Dukhan
  • Климат города

АРХИВ ПОГОДЫ в Dukhan

Время (UTC), дата Ветер
(напр.,м/с)
 
Видим.   Явления Облачность Т
(С)
Тd
(С)
f
(%)
Тe
(С)
Тes
(С)
Комфортность P
(гПа)
Po
(гПа)
Тmin
(С)
Tmax
(С)
R
(мм)
R24
(мм)
S
(см)
03 11.10 В 2 10 км н/о +26.3 +23.4 84 +36 +36 очень
душно
1010.5 1010.3
06 11.10 С 2 13 км н/о +31.2 +25.8 73 +46 +46 опасность
перегрева
1011.5 1011.3 +25.3
09 11.10 СЗ 10 13 км н/о +33.0 +26.7 70 +51 +51 опасность
перегрева
1009.9 1009.7
12 11.10 С 11 12 км н/о +32.9 +27.1 72 +51 +51 опасность
перегрева
1008.6 1008.4
15 11.10 СВ 4 15 км н/о +32.5 +25.8 68 +48 +48 опасность
перегрева
1009.1 1008.9
18 11.10 СВ 3 14 км н/о +31.3 +25.9 73 +47 +47 опасность
перегрева
1010.3 1010.1 +34.0
21 11.10 В 8 8000 м н/о +28.5 +23.4 74 +39 +39 очень
душно
1010.4 1010.2
00 12.10 В 7 13 км н/о +27.2 +22.8 77 +36 +36 очень
душно
1009.9 1009.7
03 12.10 В 3 14 км н/о +26.4 +23.1 82 +35 +35 очень
душно
1010.8 1010.6
06 12.10 В 10 14 км н/о +33.6 +23.2 55 +44 +44 опасность
перегрева
1011.9 1011.7 +26.3
09 12.10 СЗ 9 17 км н/о +34.7 +23.1 51 +45 +45 опасность
перегрева
1010.5 1010.3
12 12.10 С 12 17 км н/о +34.2 +21.6 48 +42 +42 опасность
перегрева
1009.4 1009.2
15 12.10 С 4 14 км н/о +33.0 +23.8 59 +45 +45 опасность
перегрева
1009.8 1009.6
18 12.10 В 6 18 км н/о +29.9 +22.2 63 +31 +31 жарко 1011.4 1011.2 +37.7
21 12.10 В 1 17 км н/о +27.0 +20.1 66 +33 +33 очень
душно
1011.4 1011.2
00 13.10 Ю 4 16 км н/о +25.4 +21.0 77 +32 +32 очень
душно
1011.3 1011.1
03 13.10 В 8 15 км н/о +26.0 +22.0 79 +34 +34 очень
душно
1011.9 1011.7
06 13.10 ЮВ 8 20 км н/о +33.6 +22.2 51 +42 +42 опасность
перегрева
1013.6 1013.4 +23.4
09 13.10 СЗ 7 20 км н/о +34.5 +22.8 51 +44 +44 опасность
перегрева
1012.2 1012.0
12 13.10 С 11 20 км н/о +33.4 +24.3 59 +46 +46 опасность
перегрева
1011.1 1010.9
15 13.10 СВ 4 20 км н/о +33.3 +19.5 44 +39 +39 очень
душно
1011.6 1011.4
18 13.10 В 7 12 км н/о +27.6 +15.6 48 +31 +31 душно 1013.3 1013.1 +37.5
21 13.10 В 8 20 км н/о +28.2 +19.3 59 +34 +34 очень
душно
1012.8 1012.6
00 14.10 В 4 20 км н/о +28.5 +22.0 68 +37 +37 очень
душно
1012.5 1012.3
03 14.10 В 2 20 км н/о +25.3 +22.1 82 +33 +33 очень
душно
1013.1 1012.9
06 14.10 Ю 6 20 км н/о +32.3 +21.1 52 +40 +40 очень
душно
1014.8 1014.6 +24.7
09 14.10 З 6 19 км н/о +33.3 +23.0 55 +44 +44 опасность
перегрева
1013.4 1013.2
12 14.10 С 10 20 км н/о +33.4 +21.6 50 +41 +41 опасность
перегрева
1011.5 1011.3
15 14.10 С 4 20 км н/о +33.2 +20.1 46 +39 +39 очень
душно
1011.7 1011.5
18 14.10 В 6 20 км н/о +29.7 +20.6 58 +37 +37 очень
душно
1013.3 1013.1 +34.0
21 14.10 В 5 11 км н/о +26.1 +22.0 78 +34 +34 очень
душно
1013.0 1012.8
00 15.10 СВ 3 13 км н/о +27.1 +24.6 86 +38 +38 очень
душно
1012.8 1012.6
03 15.10 В 5 6000 м н/о +23.9 +22.4 91 +31 +31 очень
душно
1014.0 1013.8
06 15.10 Ю 7 15 км н/о +30.8 +24.7 70 +44 +44 опасность
перегрева
1014.8 1014.6 +23.9
09 15.10 ЮЗ 5 20 км н/о +33.6 +20.4 46 +40 +40 очень
душно
1013.4 1013.2
12 15.10 З 4 20 км н/о +34.5 +18.8 40 +39 +39 очень
душно
1012.0 1011.8
15 15.10 СВ 7 20 км н/о +31.7 +23.4 62 +43 +43 опасность
перегрева
1013.7 1013.5
18 15.10 В 6 19 км н/о +27.8 +15.4 47 +31 +31 душно 1013.9 1013.7 +34.8
21 15.10 ЮВ 6 13 км н/о +25.9 +17.6 60 +30 +30 душно 1012.8 1012.6
00 16.10 Ю 4 11 км н/о +24.8 +18.0 66 +29 +29 душно 1012.6 1012.4
03 16.10 ЮВ 4 11 км н/о +24.2 +17.6 67 +28 +28 душно 1013.7 1013.5
06 16.10 СЗ 4 14 км н/о +31.7 +20.1 50 +38 +38 очень
душно
1014.8 1014.6 +24.2
09 16.10 С 12 10 км н/о +31.8 +21.5 54 +40 +40 очень
душно
1013.1 1012.9
12 16.10 С 7 8000 м н/о +33.3 +20.4 47 +40 +40 очень
душно
1011.8 1011.6
15 16.10 СВ 6 8000 м н/о +30.9 +22.3 60 +40 +40 очень
душно
1012.4 1012.2
18 16.10 СВ 2 8000 м н/о +28.1 +21.9 69 +36 +36 очень
душно
1013.3 1013.1 +33.3
21 16.10 В 3 8000 м н/о +25.6 +20.6 74 +32 +32 очень
душно
1012.7 1012.5
00 17.10 В 4 8000 м н/о +24.8 +20.7 78 +31 +31 очень
душно
1012.3 1012.1
03 17.10 В 5 8000 м н/о +24.0 +20.6 81 +30 +30 очень
душно
1013.3 1013.1
06 17.10 В 3 10 км н/о +31.3 +21.2 55 +39 +39 очень
душно
1014.3 1014.1 +23.4
09 17.10 З 5 10 км н/о +31.4 +22.0 57 +40 +40 очень
душно
1012.5 1012.3
15 17.10 СВ 4 10 км н/о +30.6 +21.2 57 +38 +38 очень
душно
1010.7 1010.5
21 17.10 В 4 10 км н/о +28.0 +21.6 68 +36 +36 очень
душно
1011.9 1011.7

 

Местоположение метеостанции Dukhan (Катар): широта 25.40 долгота 50.75 высота над уровнем моря 5 м.

В архиве по умолчанию представлена погода в Dukhan за последнюю неделю. Архивные данные за месяц целиком и за предыдущие месяцы, начиная с января 2011 года, Вы можете получить, выбрав интересующий диапазон дат из раскрывающегося списка и нажав кнопку "Ввод!".


*Определитесь, кто Вы:
робот инопланетянин человек

Внимание! Время в таблицах - всемирное. Для получения местного времени необходимо прибавить поправку, которая в Dukhan равна 4 ч.

Смотрите также архив погоды в соседних городах и на ближайших метеорологических станциях:

Погода в Abu Samra (Катар) (73 км)
Погода в Doha (Катар) (84 км)
Погода в Hamad Int Airport (Катар) (88 км)
Погода в Bahrain (Бахрейн) (97 км)
Погода в Dhahran (Саудовская Аравия) (113 км)
Погода в Al Ahsa (Саудовская Аравия) (128 км)
Погода в King Fahd Int Airport (Саудовская Аравия) (149 км)
Погода в Bandar Deyr (Иран) (295 км)
Погода в Kish Island (Иран) (345 км)
Погода в Sirri Island (Иран) (385 км)

Пояснения к столбцам:

Ветер - указаны скорость ветра в м/с - средняя за 10 мин, порывы в срок и между сроками (в фигурных скобках) и направление, откуда дует ветер: С - северный, СВ - северо-восточный, В - восточный, ЮВ - юго-восточный, Ю - южный, ЮЗ - юго-западный, З - западный, СЗ - северо-западный.
Видимость - горизонтальная дальность видимости в метрах или километрах. При видимости от 1 до 10 км при отсутствии осадков обычно наблюдается дымка, при ухудшении видимости до 1 км и менее - туман. В сухую погоду видимость может ухудшаться дымом, пылью или мглою.
Явления - указаны атмосферные явления, наблюдавшиеся в срок или в последний час перед сроком; фигурными скобками обозначены явления, наблюдавшиеся между сроками (за 1-3 часа до срока); квадратными скобками обозначены град или гололедные отложения с указанием их диаметра в мм.
Облачность - указаны через наклонную черту общая и нижняя облачность в баллах и высота нижней границы облаков в метрах; квадратными скобками обозначены формы облаков: Ci - перистые, Cs - перисто-слоистые, Cc - перисто-кучевые, Ac - высококучевые, As - высокослоистые, Sc - слоисто-кучевые, Ns - слоисто-дождевые, Cu - кучевые, Cb - кучево-дождевые. Подробнее классификацию облаков см. в Атласе облаков (PDF).
T - Температура воздуха - температура, измеренная на высоте 2 м над землей.
Td - Температура точки росы - температура, при понижении до которой содержащийся в воздухе водяной пар достигнет насыщения.
f - Относительная влажность воздуха - влажноcть воздуха, измеренная на высоте 2 м над землей.
Te - Эффективная температура - температура, которую ощущает одетый по сезону человек в тени. Характеристика душности погоды. При расчете учитывается влияние влажности воздуха и скорости ветра на теплоощущения человека.
Tes - Эффективная температура на солнце - температура, которую ощущает человек, с поправкой на солнечный нагрев. Характеристика знойности погоды. Зависит от высоты солнца над горизонтом, облачности и скорости ветра. Ночью, в пасмурную погоду, а также при ветре 12 м/с и более поправка равна нулю.
P - Атмосферное давление - приведенное к уровню моря атмосферное давление.
Po - Атмосферное давление - измеренное на уровне метеостанции атмосферное давление.
Tmin - Минимальная температура - минимум температуры воздуха на высоте 2 м над землей.
Tmax - Максимальная температура - максимум температуры воздуха на высоте 2 м над землей.
R - Количество осадков - Количество выпавших осадков за период времени, мм. При наведении курсора мыши на число - период времени, за который выпало указанное количество осадков.
R24 - Количество осадков - Количество выпавших осадков за 24 часа, мм.
S - Снежный покров - Высота снежного покрова, см. При наведении курсора мыши на число - состояние снежного покрова и степень покрытия местности в баллах.